Regional Weather Roundup
Issued by NWS Pendleton, OR

Home | Current Version | Previous Version | Text Only | Print | Product List | Glossary On
Versions: 1 2 3 4 5 6 7 8 9 10 11 12 13 14 15 16 17 18 19 20 21 22 23 24 25 26 27 28 29 30 31 32 33 34 35 36 37 38 39 40 41 42 43 44 45 46 47 48 49 50
000
ASUS46 KPDT 270825
RWRPDT
PENDLETON REGIONAL WEATHER ROUNDUP
NATIONAL WEATHER SERVICE PENDLETON OREGON
100 AM PDT SAT MAY 27 2017

NOTE: FAIR INDICATES FEW OR NO CLOUDS BELOW 12,000 FEET WITH NO
SIGNIFICANT WEATHER AND/OR OBSTRUCTIONS TO VISIBILITY.

# INDICATES UNOFFICIAL STATION AND DATA

WAZ520-270910-
EAST SLOPES OF WASHINGTON CASCADES

CITY            SKY/WX      TMP DP  RH  WIND    PRES   REMARKS
#BULLFROG       N/A         53  43  69  S1      N/A
#CLE ELUM HS    N/A         54  43  66  CALM    29.99R
#CLE ELUM LAKE  N/A         55  43  64  CALM    30.06R
#EASTON DOT     N/A         48  41  77  CALM    N/A
#ELK HTS DOT    N/A         54  54  100 CALM    N/A
#GLENWOOD       N/A         45  42  89  CALM    30.01R
#NELSON 3SW     N/A         49  39  68  CALM    30.19R
#NILE           N/A         53  43  69  CALM    29.31R
#TEANAWAY 4NE   N/A         50  45  83  CALM    N/A
#TROUT LAKE 1NE N/A         52  45  77  CALM    30.01R
#TROUT LAKE 1E  N/A         46  43  89  CALM    30.07R
$$

WAZ521-270910-
SIMCOE HIGHLANDS

CITY            SKY/WX      TMP DP  RH  WIND    PRES   REMARKS
#BICKLETON HS   N/A         51  40  66  W7      30.03S
#CENTERVILLE 1SWN/A         50  41  71  CALM    29.96R
#GOLDENDALE 1NE N/A         56  31  38  N3      N/A
#GOLDENDALE 4W  N/A         50  26  39  CALM    30.07R
#GOODNOE HILLS  N/A         66  36  33  NW2     N/A
#LYLE 6NE       N/A         61  45  56  N2      29.96R
#PITT 4SE       N/A         60  40  47  CALM    30.01R
$$

WAZ026-270910-
KITTITAS VALLEY

CITY            SKY/WX      TMP DP  RH  WIND    PRES   REMARKS
ELLENSBURG AP   CLEAR       56  43  62  NW6     30.03R
YTC-OPS AREA    CLEAR       59  40  49  NW8     30.08R
#ELLENSBURG CWU N/A         58  47  67  W1      29.92R
#ELLENSBURG 3NE N/A         55  45  69  CALM    28.11R
#KITTITAS 4N    N/A         54  41  61  E2      30.05R
#KITTITAS 3S    N/A         47  44  89  CALM    29.98R
#MANASTASH RDG  N/A         60  60  100 S1      N/A
#ROCKY CYN DOT  N/A         55  43  64  W6      N/A
#RYEGRASS DOT   N/A         56  41  57  W8      N/A
#THORP 6N       N/A         53  44  71  N2      29.99S
$$

WAZ027-270910-
YAKIMA VALLEY

CITY            SKY/WX      TMP DP  RH  WIND    PRES   REMARKS
SUNNYSIDE AP    CLEAR       55  42  61  NE6     30.01R
YAKIMA AIRPORT  CLEAR       57  46  67  W8      30.02R
YAKIMA-VAGABOND CLEAR       55  41  59  SW5     30.01R
#DONALD 2NE     N/A         66   8  10  CALM    28.86R
#GRANDVIEW      N/A         59  41  51  CALM    30.00R
#MABTON         N/A         62  45  54  CALM    29.98S
#MOXEE 2E       N/A         57  N/A N/A NE1     30.02R
#NACHES 2SW     N/A         63  46  54  W8      30.04R
#OUTLOOK DOT    N/A         59  43  55  CALM    29.96S
#PARKER DOT     N/A         63  43  48  S5      29.99R
#TERRACE HTS    N/A         59  43  55  CALM    29.95R
#TOPPENISH      N/A         62  46  56  CALM    29.90R
#I82 S UMTANUM RN/A         56  39  53  N2      N/A
#UNION GAP DOT  N/A         57  46  67  CALM    30.03R
#WEST VALLEY    N/A         59  47  64  CALM    29.96S
#W YAKIMA       N/A         63  46  54  CALM    29.98R
#WHITE SWAN 5E  N/A         55  45  69  CALM    29.98R
#WILEY CITY 3W  N/A         56  40  55  CALM    29.99R
#ZILLAH DOT     N/A         59  43  55  CALM    N/A
$$

WAZ028-270910-
LOWER COLUMBIA BASIN...WASHINGTON

CITY            SKY/WX      TMP DP  RH  WIND    PRES   REMARKS
PASCO           CLEAR       59  45  60  E6      30.00R
PROSSER AWOS    N/A         54  45  71  CALM    30.03R
RICHLAND AWOS   CLEAR       60  47  62  CALM    30.00R
#BENTON CITY    N/A         61  42  50  CALM    29.89R
#CONNELL 5N     N/A         50  42  74  CALM    29.98S
#CONNELL 5NW    N/A         55  46  72  E1      29.93R
#ELTOPIA 6NW    N/A         62  47  58  CALM    28.97R
#KAHLOTUS       N/A         59  43  55  CALM    29.98R
#KENNEWICK 3S   N/A         64  43  46  S2      29.97S
#PATERSON       N/A         61  47  60  E5      29.97S
#PROSSER DOT    N/A         59  45  60  CALM    30.00R
#SAGEMOOR 2W    N/A         59  46  62  CALM    29.84R
#TOUCHET 2S     N/A         47  45  93  CALM    29.97S
#WEST PASCO     N/A         61  45  56  CALM    29.99R
$$

WAZ029-270910-
FOOTHILLS OF THE BLUES...WASHINGTON

CITY            SKY/WX      TMP DP  RH  WIND    PRES   REMARKS
WALLA WALLA AP  CLEAR       61  44  53  E8      30.02R
#CLYDE 6NW      N/A         53  44  71  CALM    29.98R
#DAYTON SCHOOL  N/A         57  38  49  NE2     30.06R
#LOWDEN 2SE     N/A         51  47  86  E1      29.97R
#PLEASANT VIEW 1N/A         57  45  64  S5      30.01R
#PRESCOTT       N/A         51  46  83  CALM    29.99R
#WHITMAN COLLEGEN/A         58  48  69  CALM    30.04R
#WAITSBURG 6SSE N/A         54  41  61  E3      30.01R
#WAITSBURG 8N   N/A         46  N/A N/A CALM    30.05R
#WALLA WALLA 5E N/A         56  45  66  NE6     N/A
#WHITMAN MISSIONN/A         53  48  83  CALM    30.01R
$$

WAZ030-270910-
BLUE MOUNTAINS...WASHINGTON

CITY            SKY/WX      TMP DP  RH  WIND    PRES   REMARKS
#DIXIE 5SE      N/A         60  39  46  SE2     30.00R
$$

ORZ009-041-WAZ024-270910-
COLUMBIA RIVER GORGE

CITY            SKY/WX      TMP DP  RH  WIND    PRES   REMARKS
HOOD RIVER AP   CLEAR       55  46  72  CALM    30.02R
THE DALLES AP   CLEAR       57  47  69  N3      30.00R
#ARLINGTON AIRPON/A         63  40  43  CALM    29.99R
#CELILO DOT     N/A         62  43  50  CALM    N/A
#LYLE           N/A         62  47  58  NE5     30.00R
#MARYHILL       N/A         65  40  40  CALM    N/A
#MURDOCK        N/A         60  48  64  CALM    29.96R
#RUFUS DOT      N/A         62  43  50  S6      N/A
#SMITHVILLE     N/A         56  46  69  NW1     29.95R

$$

ORZ510-270910-
NORTH CENTRAL OREGON

CITY            SKY/WX      TMP DP  RH  WIND    PRES   REMARKS
#ANTELOPE       N/A         46  36  68  CALM    29.90R
#CHENOWITH 1W   N/A         51  35  54  NW14    N/A
#COW CYN RST AREN/A         61  31  32  NE2     N/A
#DUFUR          N/A         48  41  77  CALM    29.97R
#DUFUR 9E       N/A         66  34  30  SW2     30.03R
#GRASS VALLEY 1SN/A         55  37  51  S1      30.06S
#KENT DOT       N/A         55  28  35  S6      N/A
#MAUPIN SCHOOL  N/A         58  45  62  CALM    30.07R
#MORO SCHOOL    N/A         50  42  74  CALM    30.12R
#SHANIKO 5WSW   N/A         62  28  27  N6      N/A
#SHANIKO 4NW    N/A         62  29  28  SE5     30.09R
#TYGH VALLEY 2NEN/A         54  42  64  N1      30.00R
#WAPANITIA AIRPON/A         54  42  64  W2      30.02R
#WASCO DOT      N/A         46  40  79  E3      N/A
#WASCO 5NE      N/A         55  40  57  CALM    29.98R
$$

ORZ511-270910-
CENTRAL OREGON

CITY            SKY/WX      TMP DP  RH  WIND    PRES   REMARKS
BEND AIRPORT    CLEAR       50  36  58  SW6     30.06R
MADRAS AIRPORT  CLEAR       45  36  70  SE7     30.09R
PRINEVILLE AP   CLEAR       45  34  65  MISG    30.11R
REDMOND AIRPORT CLEAR       45  33  63  S5      30.09R
#ASHWOOD SCHOOL N/A         52  39  61  S2      30.04R
#BEND 1SW       N/A         44  35  70  NE1     N/A
#BEND-AWBREY    N/A         53  36  52  CALM    30.01S
#BEND-KIM LN    N/A         48  35  60  SW6     29.96S
#CULVER         N/A         50  39  66  CALM    29.94R
#CULVER 8W      N/A         53  36  52  CALM    30.07R
#MADRAS 4S      N/A         50  11  20  S3      N/A
#POWELL BUTTE   N/A         54  36  50  CALM    30.06R
#PRINEVILLE     N/A         53  39  59  E9      30.10R
#PRINEVILLE 3N  N/A         44  38  79  NE2     30.03R
#WARM SPRINGS   N/A         57  39  51  CALM    29.88R

$$


ORZ509-270910-
EAST SLOPES OF OREGON CASCADES

CITY            SKY/WX      TMP DP  RH  WIND    PRES   REMARKS
SISTERS AWOS    N/A         45  36  70  CALM    30.07R
#CAMP SHERMAN   N/A         41  33  73  CALM    30.08R
#LA PINE 4SW    N/A         42  26  53  CALM    30.12S
#LA PINE 4NW    N/A         40  32  73  CALM    30.08R
#LAVA BUTTE DOT N/A         43  32  65  CALM    N/A
#SISTERS 3N     N/A         41  29  62  CALM    30.09S
#SUNRIVER       N/A         43  35  73  CALM    30.04R
#TUMALO 3W      N/A         54  34  47  W7      29.88S
#WANOGA BUTTE D N/A         47  28  47  NE5     N/A

$$

ORZ044-270910-
LOWER COLUMBIA BASIN...OREGON

CITY            SKY/WX      TMP DP  RH  WIND    PRES   REMARKS
HERMISTON       CLEAR       52  46  80  E3      30.00R
#BOARDMAN SCHOOLN/A         57  42  57  CALM    29.98R
#BOARDMAN 8SW   N/A         59  43  55  W5      29.98R
#ECHO 8SW       N/A         59  39  47  SW1     30.01R
#I-84 EX 198 DOTN/A         58  42  55  NE9     N/A
#IONE SCHOOL    N/A         57  40  53  CALM    30.00R
#UMATILLA       N/A         57  45  64  CALM    29.92R
$$

ORZ507-270910-
NORTHERN FOOTHILLS OF THE BLUES

CITY            SKY/WX      TMP DP  RH  WIND    PRES   REMARKS
PENDLETON AIRPT CLEAR       54  44  69  SE12    30.03R
#ADAMS 3WNW     N/A         43  40  89  CALM    30.01R
#ATHENA         N/A         50  42  74  CALM    30.03S
#CAYUSE         N/A         57  43  59  E15     29.98S
#HELIX SCHOOL   N/A         47  41  79  CALM    30.01R
#HELIX 3N       N/A         55  41  59  S2      30.01R
#HOLDMAN 5SE    N/A         52  44  74  CALM    30.02R
#HOLDMAN 6E     N/A         53  42  66  E1      29.81R
#M-F FERNDALE   N/A         58  42  55  CALM    29.98R
#M-FREEWATER 5SEN/A         58  42  55  E7      30.02R
#PENDLETON DNTN N/A         52  37  56  CALM    30.01S
#PDT AQUATIC CTRN/A         53  39  59  E1      30.05S
#PDT SUNRIDGE   N/A         49  43  80  CALM    30.05R
#PENDLETON 7NW  N/A         51  42  71  N6      25.66S
#PILOT ROCK 1S  N/A         57  37  47  S8      30.04S
#PILOT ROCK     N/A         53  38  57  CALM    30.06R
#TUTUILLA       N/A         46  41  83  CALM    30.01S
#UMAPINE 2E     N/A         59  44  57  SE6     29.98R
#WESTON SCHOOL  N/A         56  38  51  CALM    29.99R

$$

ORZ508-270910-
SOUTHERN FOOTHILLS OF THE BLUES

CITY            SKY/WX      TMP DP  RH  WIND    PRES   REMARKS
LEXINGTON       CLEAR       55  37  51  SE14    30.06S
#AJAX           N/A         61  31  32  S1      30.18S
#CONDON 5W      N/A         60  31  33  NE1     30.07R
#FOSSIL SCHOOL  N/A         46  38  73  CALM    30.03R
#HEPPNER EOC    N/A         53  39  59  E8      29.95R
#HEPPNER 4NE    N/A         57  36  45  CALM    30.01R
#LEXINGTON 2SE  N/A         57  41  55  SE10    30.00R
#MIKKALO        N/A         62  35  36  S5      30.13R
#OLEX 4N        N/A         60  38  44  S6      29.98S
#RUGGS 5NE      N/A         50  35  56  SE1     30.23S
#RUGGS 2SW      N/A         53  38  57  SW9     30.03R

$$

ORZ502-503-270910-
BLUE MOUNTAINS

CITY            SKY/WX      TMP DP  RH  WIND    PRES   REMARKS
MEACHAM         CLEAR       37  33  85  CALM    30.11S
#BATTLE MTN DOT N/A         45  32  60  CALM    N/A
#GRANITE        N/A         34  27  75  CALM    29.80R
#GREENHORN 9SW  N/A         38  35  89  CALM    30.13R
#HARDMAN 10S    N/A         48  36  63  CALM    30.15S
#LADD CYN SMT   N/A         40  38  92  CALM    N/A
#LADD CREEK ODOTN/A         45  38  76  SW2     N/A
#LONG CREEK HS  N/A         45  41  86  CALM    N/A
#N POWDER DOT   N/A         42  39  89  SW2     N/A
#PIKES PEAK     N/A         61  38  42  CALM    27.99S
#SUMMERVILLE 5NWN/A         42  33  70  CALM    30.11R
#TOLLGATE       N/A         42  29  60  CALM    29.98R
#TROY SCHOOL    N/A         49  46  89  CALM    29.91R
#UKIAH          N/A         38  36  92  CALM    30.01R
#WESTON 4E      N/A         52  38  59  E2      29.98S
$$

ORZ505-270910-
JOHN DAY BASIN

CITY            SKY/WX      TMP DP  RH  WIND    PRES   REMARKS
JOHN DAY        CLEAR       50  37  61  E3      30.13R
#ANTELOPE 9ESE  N/A         52  39  61  SW1     N/A
#DAYVILLE SCHOOLN/A         51  37  59  CALM    30.06R
#MITCHELL       N/A         49  40  71  CALM    30.24R
#MITCHELL 8NW   N/A         58  34  40  SW1     30.02S
#MONUMENT HS    N/A         49  39  68  CALM    30.04R
#MT. VERNON 5SE N/A         49  36  61  CALM    30.07R
#SPRAY SCHOOL   N/A         49  N/A N/A CALM    N/A
$$

ORZ506-270910-
OCHOCO AND JOHN DAY HIGHLANDS

CITY            SKY/WX      TMP DP  RH  WIND    PRES   REMARKS
#HORSE RIDGE DO N/A         39  29  67  NE1     N/A
#PAULINA ODOT   N/A         46  35  65  CALM    N/A
#PINE MTN OBS   N/A         50  33  52  NE2     N/A
#PRAIRIE CITY   N/A         42  38  86  CALM    30.25R
#SENECA         N/A         41  N/A N/A CALM    N/A
#SENECA 9NW     N/A         37  32  82  CALM    30.05R
$$

ORZ049-270910-
GRANDE RONDE VALLEY

CITY            SKY/WX      TMP DP  RH  WIND    PRES   REMARKS
LA GRANDE       CLEAR       46  36  68  N9      30.09R
#COVE           N/A         49  42  77  VRB1    30.11R
#COVE SCHOOL    N/A         49  41  74  CALM    30.09S
#COVE 6NW       N/A         46  38  73  CALM    30.03S
#ELGIN 3N       N/A         42  36  79  CALM    30.07R
#ELGIN 1E       N/A         44  38  79  CALM    N/A
#IMBLER SCHOOL  N/A         46  39  76  N1      30.04R
#ISLAND CITY 4N N/A         59  51  75  CALM    29.98R
#LA GRANDE-LEFFEN/A         48  38  68  N5      30.08R
#UNION 1S       N/A         48  39  71  CALM    30.02S
$$

ORZ050-270910-
WALLOWA COUNTY

CITY            SKY/WX      TMP DP  RH  WIND    PRES   REMARKS
JOSEPH AIRPORT  CLEAR       45  37  73  S5      30.13S
#ENTERPRISE HS  N/A         42  38  86  CALM    29.93R
#IMNAHA SCHOOL  N/A         54  41  61  N2      30.08R
#IMNAHA 10S     N/A         50  40  68  SW3     30.09R
#JOSEPH         N/A         47  39  74  CALM    30.10R
#JOSEPH 3N      N/A         40  33  76  CALM    30.14R
#JOSEPH 3W      N/A         46  40  79  SW2     29.96S
#LOSTINE        N/A         46  40  79  E2      29.85R
#LOSTINE 3SE    N/A         45  40  82  S5      30.15R
#MT HOWARD 8000 N/A         39  34  82  CALM    30.23R
#PROMISE 1S     N/A         45  40  82  S2      30.13R
#WALLOWA LAKE   N/A         47  37  68  E2      30.15R
#WALLOWA SCHOOL N/A         44  40  86  CALM    30.07R



$$



USA.gov is the U.S. government's official web portal to all federal, state and local government web resources and services.